Weather History for Roseau, MN

Change the Weather History Date:

Monday, December 26, 2011

  Actual Average Record
Temperature  
Mean Temperature 39 °F -  
Max Temperature 46 °F 12 °F 46 °F (2011)
Min Temperature 30 °F -8 °F -38 °F (1990)
Degree Days  
Heating Degree Days 26    
Moisture  
Dew Point 28 °F    
Average Humidity 69    
Maximum Humidity 87    
Minimum Humidity 50    
Precipitation  
Precipitation 0.00 in - - ()
Sea Level Pressure  
Sea Level Pressure 29.49 in    
Wind  
Wind Speed 18 mph (SW)    
Max Wind Speed 23 mph    
Max Gust Speed 31 mph    
Visibility 10 miles    
Events Snow    
Averages and records for this station are not official NWS values.
T = Trace of Precipitation, MM = Missing Value Source: NWS Daily Summary

Daily Weather History Graph

Daily Weather History Graph

Search for Another Location

Airport:

Trip Planner

Search our weather history database for the weather conditions in past years. The results will help you decide how hot, cold, wet, or windy it might be!

Date:

Astronomy

Dec. 26, 2011 Rise Set
Actual Time 8:15 AM CST 4:31 PM CST
Civil Twilight 7:38 AM CST 5:08 PM CST
Nautical Twilight 6:57 AM CST 5:48 PM CST
Astronomical Twilight 6:19 AM CST 6:27 PM CST
Moon 9:26 AM CST (12/26) 7:11 PM CST (12/26)
Length of Visible Light 9h 30m
Length of Day
8h 15m
Waxing Crescent, 5% of the Moon is Illuminated
Dec 26
Waxing Crescent
Jan 1
First Quarter
Jan 9
Full
Jan 16
Last Quarter
Jan 23
New

Hourly Weather History & Observations

Time (CST) Temp. Windchill Dew Point Humidity Pressure Visibility Wind Dir Wind Speed Gust Speed Precip Events Conditions
12:14 AM 37.4 °F 26.6 °F 26.6 °F 65% 29.74 in 10.0 mi SSW 21.9 mph 26.5 mph N/A   Clear
12:34 AM 37.4 °F 26.4 °F 26.6 °F 65% 29.73 in 10.0 mi SSW 23.0 mph 31.1 mph N/A   Clear
12:54 AM 37.4 °F 26.4 °F 26.6 °F 65% 29.71 in 10.0 mi SSW 23.0 mph 29.9 mph N/A   Clear
1:14 AM 37.4 °F 26.9 °F 26.6 °F 65% 29.71 in 10.0 mi SSW 20.7 mph 25.3 mph N/A   Clear
1:34 AM 37.4 °F 26.9 °F 26.6 °F 65% 29.69 in 10.0 mi SSW 20.7 mph 27.6 mph N/A   Clear
1:54 AM 37.4 °F 27.8 °F 26.6 °F 65% 29.68 in 10.0 mi SSW 17.3 mph 23.0 mph N/A   Clear
2:14 AM 37.4 °F 28.2 °F 26.6 °F 65% 29.67 in 10.0 mi SSW 16.1 mph 21.9 mph N/A   Clear
2:34 AM 37.4 °F 27.2 °F 26.6 °F 65% 29.66 in 10.0 mi SSW 19.6 mph - N/A   Clear
2:54 AM 37.4 °F 26.6 °F 26.6 °F 65% 29.64 in 10.0 mi SSW 21.9 mph 26.5 mph N/A   Clear
3:14 AM 35.6 °F 24.5 °F 26.6 °F 70% 29.62 in 10.0 mi SSW 20.7 mph 26.5 mph N/A   Clear
3:34 AM 35.6 °F 24.8 °F 26.6 °F 70% 29.61 in 10.0 mi SSW 19.6 mph 24.2 mph N/A   Clear
3:54 AM 35.6 °F 25.2 °F 24.8 °F 65% 29.60 in 10.0 mi SSW 18.4 mph - N/A   Clear
4:14 AM 35.6 °F 25.5 °F 24.8 °F 65% 29.59 in 10.0 mi South 17.3 mph - N/A   Clear
4:34 AM 33.8 °F 23.2 °F 24.8 °F 70% 29.58 in 10.0 mi South 17.3 mph - N/A   Clear
4:54 AM 33.8 °F 22.5 °F 24.8 °F 70% 29.55 in 10.0 mi South 19.6 mph - N/A   Clear
5:14 AM 35.6 °F 26.6 °F 24.8 °F 65% 29.54 in 10.0 mi South 13.8 mph - N/A   Clear
5:34 AM 33.8 °F 23.5 °F 24.8 °F 70% 29.52 in 10.0 mi South 16.1 mph - N/A   Clear
6:14 AM 35.6 °F 25.9 °F 24.8 °F 65% 29.50 in 10.0 mi South 16.1 mph - N/A   Clear
6:34 AM 35.6 °F 26.6 °F 24.8 °F 65% 29.49 in 10.0 mi SSW 13.8 mph - N/A   Clear
6:54 AM 35.6 °F 26.6 °F 24.8 °F 65% 29.47 in 10.0 mi South 13.8 mph - N/A   Clear
7:14 AM 35.6 °F 27.1 °F 26.6 °F 70% 29.46 in 10.0 mi South 12.7 mph - N/A   Clear
7:34 AM 35.6 °F 25.9 °F 24.8 °F 65% 29.45 in 10.0 mi SSW 16.1 mph 23.0 mph N/A   Clear
7:54 AM 35.6 °F 25.9 °F 26.6 °F 70% 29.43 in 10.0 mi South 16.1 mph - N/A   Clear
8:14 AM 35.6 °F 25.9 °F 26.6 °F 70% 29.43 in 10.0 mi SSW 16.1 mph - N/A   Clear
8:34 AM 35.6 °F 27.5 °F 26.6 °F 70% 29.42 in 10.0 mi SSW 11.5 mph - N/A   Clear
8:54 AM 35.6 °F 27.1 °F 26.6 °F 70% 29.42 in 10.0 mi SSW 12.7 mph - N/A   Clear
9:14 AM 35.6 °F 27.5 °F 26.6 °F 70% 29.42 in 10.0 mi SW 11.5 mph - N/A   Clear
9:34 AM 35.6 °F 27.1 °F 26.6 °F 70% 29.41 in 10.0 mi SSW 12.7 mph - N/A   Clear
9:54 AM 35.6 °F 26.2 °F 26.6 °F 70% 29.40 in 10.0 mi SSW 15.0 mph 18.4 mph N/A   Clear
10:14 AM 35.6 °F 27.1 °F 26.6 °F 70% 29.39 in 10.0 mi SSW 12.7 mph - N/A   Clear
10:35 AM 35.6 °F 26.6 °F 26.6 °F 70% 29.40 in 10.0 mi SSW 13.8 mph 19.6 mph N/A   Clear
10:54 AM 37.4 °F 28.2 °F 28.4 °F 70% 29.39 in 10.0 mi SW 16.1 mph 19.6 mph N/A   Clear
11:14 AM 37.4 °F 28.5 °F 28.4 °F 70% 29.39 in 10.0 mi SW 15.0 mph 20.7 mph N/A   Clear
11:35 AM 39.2 °F 30.2 °F 28.4 °F 65% 29.37 in 10.0 mi SW 17.3 mph - N/A   Clear
11:54 AM 39.2 °F 31.2 °F 28.4 °F 65% 29.38 in 10.0 mi WSW 13.8 mph 19.6 mph N/A   Clear
12:14 PM 41.0 °F 34.3 °F 28.4 °F 61% 29.37 in 10.0 mi SW 11.5 mph 19.6 mph N/A   Clear
12:34 PM 42.8 °F 35.8 °F 30.2 °F 61% 29.36 in 10.0 mi SW 13.8 mph 19.6 mph N/A   Clear
12:55 PM 44.6 °F 39.2 °F 28.4 °F 53% 29.36 in 10.0 mi WSW 10.4 mph 20.7 mph N/A   Clear
1:14 PM 44.6 °F 38.1 °F 28.4 °F 53% 29.34 in 10.0 mi West 13.8 mph 20.7 mph N/A   Clear
1:34 PM 46.4 °F 40.4 °F 28.4 °F 50% 29.35 in 10.0 mi West 13.8 mph 19.6 mph N/A   Clear
1:55 PM 46.4 °F 40.1 °F 30.2 °F 53% 29.35 in 10.0 mi West 15.0 mph 23.0 mph N/A   Clear
2:14 PM 46.4 °F 40.4 °F 30.2 °F 53% 29.35 in 10.0 mi WSW 13.8 mph 23.0 mph N/A   Clear
2:34 PM 46.4 °F 39.8 °F 30.2 °F 53% 29.35 in 10.0 mi WSW 16.1 mph 24.2 mph N/A   Scattered Clouds
2:55 PM 44.6 °F 38.4 °F 30.2 °F 57% 29.36 in 10.0 mi WSW 12.7 mph 20.7 mph N/A   Mostly Cloudy
3:14 PM 44.6 °F 40.2 °F 30.2 °F 57% 29.37 in 10.0 mi West 8.1 mph 20.7 mph N/A   Mostly Cloudy
3:34 PM 44.6 °F 38.4 °F 32.0 °F 61% 29.39 in 10.0 mi West 12.7 mph 24.2 mph N/A   Scattered Clouds
3:55 PM 42.8 °F 35.8 °F 33.8 °F 70% 29.40 in 10.0 mi WSW 13.8 mph 24.2 mph N/A   Light Drizzle
4:14 PM 41.0 °F 33.5 °F 35.6 °F 81% 29.40 in 10.0 mi WSW 13.8 mph 19.6 mph N/A   Scattered Clouds
4:34 PM 39.2 °F 31.2 °F 33.8 °F 81% 29.41 in 10.0 mi WSW 13.8 mph 18.4 mph N/A   Clear
4:53 PM 39.2 °F 32.0 °F 33.8 °F 81% 29.42 in 10.0 mi WSW 11.5 mph - N/A   Scattered Clouds
5:14 PM 39.2 °F 32.0 °F 33.8 °F 81% 29.44 in 10.0 mi West 11.5 mph 18.4 mph N/A   Scattered Clouds
5:34 PM 39.2 °F 29.6 °F 32.0 °F 75% 29.45 in 10.0 mi WNW 19.6 mph 25.3 mph N/A   Mostly Cloudy
5:54 PM 37.4 °F 27.8 °F 32.0 °F 81% 29.47 in 10.0 mi WNW 17.3 mph 31.1 mph N/A   Overcast
6:14 PM 35.6 °F 25.9 °F 32.0 °F 87% 29.49 in 7.0 mi WNW 16.1 mph 23.0 mph N/A Snow Light Snow
6:35 PM 35.6 °F 26.6 °F 32.0 °F 87% 29.51 in 10.0 mi WNW 13.8 mph 24.2 mph N/A   Overcast
6:54 PM 35.6 °F 25.9 °F 32.0 °F 87% 29.52 in 5.0 mi WNW 16.1 mph 21.9 mph N/A Snow Light Snow
7:13 PM 33.8 °F 22.5 °F 30.2 °F 87% 29.53 in 7.0 mi NW 19.6 mph 27.6 mph N/A Snow Light Snow
7:34 PM 33.8 °F 22.5 °F 30.2 °F 87% 29.55 in 7.0 mi NW 19.6 mph 27.6 mph N/A   Mostly Cloudy
7:54 PM 33.8 °F 22.2 °F 30.2 °F 87% 29.57 in 10.0 mi NW 20.7 mph 29.9 mph N/A   Overcast
8:14 PM 32.0 °F 19.8 °F 28.4 °F 87% 29.58 in 10.0 mi NW 20.7 mph 26.5 mph N/A   Overcast
8:34 PM 30.2 °F 17.1 °F 26.6 °F 86% 29.61 in 10.0 mi NW 21.9 mph 31.1 mph N/A   Overcast
8:54 PM 30.2 °F 16.8 °F 26.6 °F 86% 29.64 in 10.0 mi NW 23.0 mph 27.6 mph N/A   Overcast
9:14 PM 28.4 °F 14.1 °F 24.8 °F 86% 29.66 in 10.0 mi NNW 24.2 mph 27.6 mph N/A   Overcast
9:34 PM 28.4 °F 16.2 °F 24.8 °F 86% 29.68 in 10.0 mi NW 17.3 mph 27.6 mph N/A   Overcast
9:54 PM 26.6 °F 13.4 °F 21.2 °F 80% 29.70 in 10.0 mi NW 18.4 mph 24.2 mph N/A   Overcast
10:14 PM 24.8 °F 10.7 °F 21.2 °F 86% 29.71 in 10.0 mi NNW 19.6 mph - N/A   Overcast
10:34 PM 24.8 °F 10.3 °F 19.4 °F 80% 29.73 in 10.0 mi NNW 20.7 mph 28.8 mph N/A   Overcast
10:54 PM 24.8 °F 10.7 °F 19.4 °F 80% 29.75 in 10.0 mi NW 19.6 mph - N/A   Overcast
11:14 PM 24.8 °F 11.5 °F 19.4 °F 80% 29.77 in 10.0 mi NNW 17.3 mph 25.3 mph N/A   Overcast
11:34 PM 24.8 °F 10.7 °F 19.4 °F 80% 29.79 in 10.0 mi NNW 19.6 mph 24.2 mph N/A   Overcast
11:54 PM 23.0 °F 9.2 °F 19.4 °F 86% 29.80 in 10.0 mi NNW 17.3 mph - N/A   Overcast